Home > Weather > Norrköping > Past weeks

Flag for Sweden Weather for the Past 2 Weeks in Norrköping, Sweden

Now
41 °F

Overcast.


Feels Like: 36 °F
Forecast: 39 / 43 °F
Wind: 8 mph from South

Location: Norrkoping Airport

Current Time: Feb 7, 2016 at 6:02:57 AM

Latest Report: Feb 7, 2016 at 5:20 AM


Visibility: N/A

Pressure: 29.53 "Hg

Humidity: 93%

Dew point: 39 °F

Location of NorrköpingLocation

Historic Weather in Norrköping — Graph

°F

Norrköping Temperature Yesterday

Maximum temperature yesterday: 45 °F (at 2:20 PM)
Minimum temperature yesterday: 32 °F (at 12:20 AM)
Average temperature yesterday: 40 °F

High & Low Weather Summary for the Past Weeks

 TemperatureHumidityPressure
High48 °F (Jan 27, 2:20 PM)100% (Jan 23, 4:20 AM)30.27 "Hg (Jan 23, 4:20 AM)
Low19 °F (Jan 23, 4:20 AM)56% (Feb 5, 1:50 PM)28.85 "Hg (Feb 3, 1:20 AM)
Average37 °F85%29.54 "Hg
* Reported Jan 23 4:20 AM — Feb 7 4:50 AM, Norrköping, Weather by CustomWeather, © 2016

Note: Actual official high and low records may vary slightly from our data, if they occured in-between our weather recording intervals... More about our weather records

Advertising

Norrköping Weather History for the Previous 24 Hours

 ConditionsComfort  
Time TempWeatherWind HumidityBarometerVisibility
4:50 AM
Sun, Feb 7
41 °FOvercast.8 mph93%29.53 "HgN/A
4:20 AM41 °FOvercast.8 mph93%29.56 "HgN/A
3:50 AM39 °FPassing clouds.6 mph100%29.56 "HgN/A
3:20 AM39 °FChilly.6 mph100%29.56 "HgN/A
2:20 AM41 °FPassing clouds.6 mph93%29.56 "HgN/A
1:50 AM41 °FPassing clouds.5 mph93%29.59 "HgN/A
1:20 AM43 °FPassing clouds.5 mph87%29.59 "HgN/A
12:50 AM43 °FMostly cloudy.6 mph93%29.59 "HgN/A
12:20 AM43 °FPassing clouds.9 mph93%29.59 "HgN/A
11:50 PM
Sat, Feb 6
45 °FOvercast.8 mph87%29.62 "HgN/A
11:20 PM43 °FMostly cloudy.7 mph93%29.62 "HgN/A
10:50 PM43 °FMostly cloudy.7 mph100%29.62 "HgN/A
9:50 PM45 °FOvercast.8 mph87%29.62 "HgN/A
9:20 PM45 °FOvercast.7 mph87%29.62 "HgN/A
8:50 PM45 °FMostly cloudy.9 mph87%29.62 "HgN/A
8:20 PM45 °FOvercast.9 mph87%29.62 "HgN/A
7:50 PM45 °FMostly cloudy.9 mph87%29.62 "HgN/A
7:20 PM45 °FMostly cloudy.9 mph87%29.62 "HgN/A
6:50 PM45 °FMostly cloudy.9 mph87%29.62 "HgN/A
6:20 PM45 °FPartly cloudy.10 mph87%29.62 "HgN/A
5:50 PM45 °FPassing clouds.12 mph87%29.62 "HgN/A
5:20 PM45 °FPartly cloudy.13 mph87%29.62 "HgN/A
4:50 PM45 °FMostly cloudy.13 mph87%29.62 "HgN/A
4:20 PM45 °FOvercast.12 mph87%29.62 "HgN/A
3:50 PM45 °FPartly sunny.12 mph87%29.62 "HgN/A
3:20 PM45 °FPartly sunny.10 mph87%29.62 "HgN/A
2:50 PM45 °FOvercast.12 mph87%29.62 "HgN/A
2:20 PM45 °FOvercast.9 mph87%29.65 "HgN/A
1:50 PM43 °FOvercast.12 mph93%29.65 "HgN/A
1:20 PM43 °FMostly cloudy.10 mph93%29.65 "HgN/A
12:50 PM43 °FMostly cloudy.13 mph87%29.68 "HgN/A
12:20 PM41 °FPartly sunny.10 mph93%29.68 "HgN/A
11:50 AM41 °FMore clouds than sun.12 mph93%29.68 "HgN/A
11:20 AM41 °FMostly cloudy.10 mph93%29.71 "HgN/A
10:50 AM41 °FOvercast.8 mph93%29.71 "HgN/A
10:20 AM39 °FOvercast.7 mph93%29.71 "HgN/A
9:50 AM39 °FBroken clouds.8 mph93%29.71 "HgN/A
8:20 AM36 °FLow clouds.7 mph100%29.74 "HgN/A
7:50 AM36 °FLow clouds.3 mph100%29.74 "HgN/A
7:20 AM34 °FLow clouds.3 mph100%29.74 "HgN/A
6:50 AM34 °FLow clouds.5 mph100%29.74 "HgN/A
6:20 AM34 °FDrizzle. Low clouds.3 mph100%29.77 "HgN/A
Weather by CustomWeather, © 2016

See weather overviewHow to use our weather pages